TimePDT,TemperatureF,Dew PointF,Humidity,Sea Level PressureIn,VisibilityMPH,Wind Direction,Wind SpeedMPH,Gust SpeedMPH,PrecipitationIn,Events,Conditions,WindDirDegrees,DateUTC
12:15 AM,57.2,35.6,44,30.20,10.0,Calm,Calm,-,N/A,,Clear,0,2013-07-05 07:15:00
12:35 AM,57.2,35.6,44,30.20,10.0,Calm,Calm,-,N/A,,Clear,0,2013-07-05 07:35:00
12:55 AM,57.2,37.4,48,30.19,10.0,West,3.5,-,N/A,,Clear,270,2013-07-05 07:55:00
1:15 AM,55.4,35.6,47,30.18,10.0,West,3.5,-,N/A,,Clear,270,2013-07-05 08:15:00
1:35 AM,55.4,35.6,47,30.18,10.0,Calm,Calm,-,N/A,,Clear,0,2013-07-05 08:35:00
1:55 AM,53.6,33.8,47,30.17,10.0,Calm,Calm,-,N/A,,Clear,0,2013-07-05 08:55:00
2:15 AM,53.6,32.0,44,30.17,10.0,Calm,Calm,-,N/A,,Clear,0,2013-07-05 09:15:00
2:35 AM,53.6,30.2,41,30.17,10.0,Calm,Calm,-,N/A,,Clear,0,2013-07-05 09:35:00
2:55 AM,53.6,30.2,41,30.17,10.0,Calm,Calm,-,N/A,,Clear,0,2013-07-05 09:55:00
3:15 AM,51.8,30.2,44,30.16,10.0,Calm,Calm,-,N/A,,Clear,0,2013-07-05 10:15:00
3:35 AM,51.8,30.2,44,30.16,10.0,Calm,Calm,-,N/A,,Clear,0,2013-07-05 10:35:00
3:55 AM,51.8,30.2,44,30.16,10.0,Calm,Calm,-,N/A,,Clear,0,2013-07-05 10:55:00
4:15 AM,51.8,30.2,44,30.16,10.0,Calm,Calm,-,N/A,,Clear,0,2013-07-05 11:15:00
4:35 AM,51.8,32.0,47,30.16,10.0,Calm,Calm,-,N/A,,Clear,0,2013-07-05 11:35:00
4:55 AM,51.8,32.0,47,30.16,10.0,Calm,Calm,-,N/A,,Clear,0,2013-07-05 11:55:00
5:15 AM,50.0,32.0,50,30.16,10.0,Calm,Calm,-,N/A,,Clear,0,2013-07-05 12:15:00
5:35 AM,50.0,32.0,50,30.16,10.0,Calm,Calm,-,N/A,,Clear,0,2013-07-05 12:35:00
5:55 AM,50.0,32.0,50,30.16,10.0,Calm,Calm,-,N/A,,Clear,0,2013-07-05 12:55:00
6:15 AM,50.0,32.0,50,30.16,10.0,Calm,Calm,-,N/A,,Clear,0,2013-07-05 13:15:00
6:35 AM,51.8,33.8,50,30.16,10.0,Calm,Calm,-,N/A,,Clear,0,2013-07-05 13:35:00
6:55 AM,53.6,33.8,47,30.16,10.0,Calm,Calm,-,N/A,,Clear,0,2013-07-05 13:55:00
7:15 AM,55.4,37.4,51,30.17,10.0,Calm,Calm,-,N/A,,Clear,0,2013-07-05 14:15:00
7:35 AM,57.2,39.2,51,30.17,10.0,Calm,Calm,-,N/A,,Clear,0,2013-07-05 14:35:00
7:55 AM,60.8,41.0,48,30.17,10.0,Calm,Calm,-,N/A,,Clear,0,2013-07-05 14:55:00
8:15 AM,64.4,42.8,45,30.18,10.0,Calm,Calm,-,N/A,,Clear,0,2013-07-05 15:15:00
8:35 AM,66.2,41.0,40,30.18,10.0,Calm,Calm,-,N/A,,Scattered Clouds,0,2013-07-05 15:35:00
8:55 AM,68.0,42.8,40,30.18,10.0,West,6.9,-,N/A,,Scattered Clouds,270,2013-07-05 15:55:00
9:15 AM,69.8,41.0,35,30.18,10.0,West,5.8,-,N/A,,Clear,260,2013-07-05 16:15:00
9:35 AM,77.0,35.6,22,30.18,10.0,West,5.8,-,N/A,,Clear,260,2013-07-05 16:35:00
9:55 AM,77.0,33.8,21,30.18,10.0,West,8.1,-,N/A,,Clear,260,2013-07-05 16:55:00
10:15 AM,78.8,32.0,18,30.18,10.0,West,6.9,-,N/A,,Scattered Clouds,260,2013-07-05 17:15:00
10:35 AM,78.8,32.0,18,30.18,10.0,West,10.4,-,N/A,,Scattered Clouds,270,2013-07-05 17:35:00
10:55 AM,80.6,35.6,20,30.18,10.0,West,13.8,-,N/A,,Clear,270,2013-07-05 17:55:00
11:15 AM,78.8,37.4,23,30.18,10.0,West,11.5,-,N/A,,Clear,270,2013-07-05 18:15:00
11:35 AM,77.0,37.4,24,30.18,10.0,West,8.1,-,N/A,,Scattered Clouds,260,2013-07-05 18:35:00
11:55 AM,77.0,41.0,28,30.19,10.0,WSW,9.2,-,N/A,,Scattered Clouds,250,2013-07-05 18:55:00
12:15 PM,78.8,41.0,26,30.19,10.0,West,11.5,-,N/A,,Scattered Clouds,260,2013-07-05 19:15:00
12:35 PM,78.8,41.0,26,30.19,10.0,West,11.5,-,N/A,,Clear,260,2013-07-05 19:35:00
12:55 PM,78.8,37.4,23,30.19,10.0,West,12.7,17.3,N/A,,Clear,260,2013-07-05 19:55:00
1:15 PM,78.8,33.8,20,30.19,10.0,West,13.8,17.3,N/A,,Clear,260,2013-07-05 20:15:00
1:35 PM,78.8,32.0,18,30.18,10.0,WSW,11.5,17.3,N/A,,Clear,250,2013-07-05 20:35:00
1:55 PM,80.6,32.0,17,30.18,10.0,West,15.0,19.6,N/A,,Clear,260,2013-07-05 20:55:00
2:15 PM,78.8,32.0,18,30.18,10.0,West,16.1,-,N/A,,Clear,260,2013-07-05 21:15:00
2:35 PM,78.8,33.8,20,30.17,10.0,West,11.5,-,N/A,,Clear,260,2013-07-05 21:35:00
2:55 PM,80.6,33.8,18,30.16,10.0,West,15.0,-,N/A,,Clear,270,2013-07-05 21:55:00
3:15 PM,82.4,32.0,16,30.15,10.0,West,16.1,-,N/A,,Clear,270,2013-07-05 22:15:00
3:35 PM,80.6,32.0,17,30.15,10.0,West,15.0,19.6,N/A,,Clear,270,2013-07-05 22:35:00
3:55 PM,80.6,28.4,15,30.15,10.0,West,15.0,-,N/A,,Clear,260,2013-07-05 22:55:00
4:15 PM,80.6,30.2,16,30.14,10.0,West,12.7,-,N/A,,Clear,260,2013-07-05 23:15:00
4:35 PM,80.6,32.0,17,30.14,10.0,West,13.8,-,N/A,,Clear,270,2013-07-05 23:35:00
4:55 PM,78.8,33.8,20,30.13,10.0,West,11.5,-,N/A,,Clear,260,2013-07-05 23:55:00
5:15 PM,77.0,37.4,24,30.13,10.0,West,12.7,16.1,N/A,,Clear,270,2013-07-06 00:15:00
5:35 PM,77.0,37.4,24,30.12,10.0,West,11.5,-,N/A,,Clear,260,2013-07-06 00:35:00
5:55 PM,77.0,39.2,26,30.12,10.0,West,9.2,-,N/A,,Clear,260,2013-07-06 00:55:00
6:15 PM,75.2,41.0,29,30.12,10.0,SSW,6.9,-,N/A,,Clear,210,2013-07-06 01:15:00
6:35 PM,75.2,37.4,25,30.13,10.0,WSW,8.1,-,N/A,,Clear,240,2013-07-06 01:35:00
6:55 PM,73.4,41.0,31,30.14,10.0,West,10.4,-,N/A,,Clear,260,2013-07-06 01:55:00
7:15 PM,71.6,41.0,33,30.14,10.0,West,9.2,-,N/A,,Clear,270,2013-07-06 02:15:00
7:35 PM,71.6,39.2,31,30.14,10.0,West,10.4,-,N/A,,Clear,280,2013-07-06 02:35:00
7:55 PM,69.8,41.0,35,30.14,10.0,West,10.4,-,N/A,,Clear,280,2013-07-06 02:55:00
8:15 PM,68.0,42.8,40,30.15,10.0,West,6.9,-,N/A,,Clear,270,2013-07-06 03:15:00
8:35 PM,66.2,41.0,40,30.16,10.0,West,3.5,-,N/A,,Clear,260,2013-07-06 03:35:00
8:55 PM,66.2,42.8,43,30.16,10.0,Calm,Calm,-,N/A,,Clear,0,2013-07-06 03:55:00
9:15 PM,64.4,42.8,45,30.16,10.0,WSW,4.6,-,N/A,,Clear,250,2013-07-06 04:15:00
9:35 PM,64.4,42.8,45,30.16,10.0,Calm,Calm,-,N/A,,Clear,0,2013-07-06 04:35:00
9:55 PM,64.4,42.8,45,30.17,10.0,West,4.6,-,N/A,,Clear,260,2013-07-06 04:55:00
10:15 PM,64.4,42.8,45,30.17,10.0,WSW,3.5,-,N/A,,Clear,250,2013-07-06 05:15:00
10:35 PM,62.6,42.8,48,30.17,10.0,Calm,Calm,-,N/A,,Clear,0,2013-07-06 05:35:00
10:55 PM,62.6,44.6,52,30.17,10.0,WSW,3.5,-,N/A,,Clear,240,2013-07-06 05:55:00
11:15 PM,62.6,42.8,48,30.17,10.0,SW,3.5,-,N/A,,Clear,230,2013-07-06 06:15:00
11:35 PM,60.8,42.8,52,30.17,10.0,Calm,Calm,-,N/A,,Clear,0,2013-07-06 06:35:00
11:55 PM,60.8,42.8,52,30.17,10.0,Calm,Calm,-,N/A,,Clear,0,2013-07-06 06:55:00